Location: Dana
(41.8364°N, 106.7042°W)
Time: 15:22:33
(UTC+00:00)

Vanguard 3 - Pass Details

Date: 15 May 2026
Orbit: 507 x 3204 km, 33.3° (Epoch: 8 June)

Event Time Altitude Azimuth Distance (km) Brightness Sun altitude
Rises 00:16:57 0° 270° (W) 7,151 13.5 20.9°
Reaches altitude 10° 00:21:56 10° 267° (W) 6,104 13.6 20.0°
Maximum altitude 00:40:10 58° 195° (SSW) 2,916 10.2 16.6°
Drops below altitude 10° 00:52:19 10° 120° (ESE) 4,229 10.3 14.4°
Sets 00:55:07 0° 117° (ESE) 4,915 10.5 13.9°
